Location: Arpaise
(41.0333°N, 14.7333°E)
Time: 08:00:45
(UTC+00:00)

SL-16 R/B - Pass Details

Date: 05 July 2020
Orbit: 842 x 846 km, 71.0° (Epoch: 05 August)

Event Time Altitude Azimuth Distance (km) Brightness Sun altitude
Rises 19:04:48 0° 206° (SSW) 3,386 5.2 -5.3°
Reaches altitude 10° 19:07:14 10° 207° (SSW) 2,456 4.5 -5.7°
Maximum altitude 19:12:52 78° 294° (WNW) 866 2.4 -6.5°
Drops below altitude 10° 19:18:34 10° 21° (NNE) 2,474 4.9 -7.3°
Sets 19:21:02 0° 23° (NNE) 3,413 5.6 -7.7°
